Meteo Giornale » Osservazioni meteo Italia » Brescia-Montichiari

ore: 07:20 - Osservazioni Meteo Brescia-Montichiari
Lat. 45° 24' N Lon. 10° 18' E Alt. 104 metri s.l.m.

poco_nuvoloso

20 °C

Poco Nuvoloso

Temp. 24 Ore

20 °C

31 °C

Nord

3.7 Km/h

Dew point 17 °C

Umidità 82 %

Visibilità  10 Km

Il sole sorge alle ore 06:41

Il sole tramonta alle ore 19:55

Data e Ora Cielo e Fenomeni T °C DP °C Um. % Pres. hPa Vis. km Vento km/h
Oggi h: 07:20 poco_nuvoloso Poco Nuvoloso 20 17 82 1018 10 N 3.7
Oggi h: 06:50 sereno Sereno 20 17 82 1018 10 N 5.5
Oggi h: 06:20 sereno Sereno 22 17 73 1018 10 N/NE 7.4
Oggi h: 05:50 sereno Sereno 22 17 73 1018 10 N/NE 11.1
Oggi h: 05:20 poco_nuvoloso Poco Nuvoloso 22 17 73 1018 10 N/NE 7.4
Oggi h: 04:50 nuvoloso Nuvoloso 22 17 73 1018 10 N/NE 11.1
Oggi h: 04:20 sereno Sereno 22 17 73 1018 10 N/NE 7.4
Oggi h: 03:50 sereno Sereno 22 17 73 1018 10 N/NE 9.3
Oggi h: 03:20 sereno Sereno 22 17 73 1018 10 N/NE 9.3
Oggi h: 02:50 sereno Sereno 22 17 73 1018 10 N/NE 9.3
Oggi h: 02:20 sereno Sereno 22 17 73 1018 10 N/NE 9.3
Oggi h: 01:50 sereno Sereno 23 17 68 1018 10 N 5.5
Oggi h: 01:20 sereno Sereno 23 17 68 1018 10 N/NE 11.1
Oggi h: 00:50 sereno Sereno 23 18 73 1018 10 N 9.3
Oggi h: 00:20 sereno Sereno 24 18 69 1018 10 N 5.5
Ieri h: 23:50 sereno Sereno 24 18 69 1018 10 N/NE 7.4
Ieri h: 23:20 poco_nuvoloso Poco Nuvoloso 25 17 61 1018 10 N 7.4
Ieri h: 22:50 nuvoloso Nuvoloso 25 17 61 1018 10 N 7.4
Ieri h: 22:20 sereno Sereno 25 17 61 1018 10 N 5.5
Ieri h: 21:50 sereno Sereno 26 17 57 1018 10 E 11.1
Ieri h: 21:20 sereno Sereno 26 17 57 1017 10 E 7.4
Ieri h: 20:50 sereno Sereno 27 17 54 1017 10 N 5.5
Ieri h: 20:20 sereno Sereno 27 17 54 1017 10 E 9.3
Ieri h: 19:50 sereno Sereno 28 18 54 1017 10 E 11.1
Ieri h: 19:20 sereno Sereno 29 18 51 1016 10 E 13
Ieri h: 18:50 sereno Sereno 30 18 48 1016 10 E/SE 14.8
Ieri h: 18:20 poco_nuvoloso Poco Nuvoloso 30 18 48 1016 10 E/SE 13
Ieri h: 17:50 nuvoloso Nuvoloso 30 18 48 1016 10 E 16.7
Ieri h: 17:20 poco_nuvoloso Poco Nuvoloso 30 18 48 1016 10 E 13
Ieri h: 16:50 poco_nuvoloso Poco Nuvoloso 31 17 43 1017 10 E/SE 13
Ieri h: 16:20 poco_nuvoloso Poco Nuvoloso 31 18 45 1017 10 E 13
Ieri h: 15:50 poco_nuvoloso Poco Nuvoloso 31 17 43 1017 10 E/SE 16.7
Ieri h: 15:20 sereno Sereno 31 17 43 1017 10 E 14.8
Ieri h: 14:50 poco_nuvoloso Poco Nuvoloso 31 17 43 1017 10 E/SE 18.5
Ieri h: 14:20 nuvoloso Nuvoloso 30 16 42 1017 10 E/SE 20.3
Ieri h: 13:50 poco_nuvoloso Poco Nuvoloso 30 15 40 1018 10 E 18.5
Ieri h: 13:20 poco_nuvoloso Poco Nuvoloso 31 15 37 1018 10 E/SE 22.2
Ieri h: 12:50 nuvoloso Nuvoloso 30 14 37 1018 10 E 20.3
Ieri h: 12:20 poco_nuvoloso Poco Nuvoloso 29 15 42 1018 10 E 13
Ieri h: 11:50 poco_nuvoloso Poco Nuvoloso 29 16 45 1018 10 E 13
Ieri h: 11:20 sereno Sereno 28 16 48 1018 10 E 13
Ieri h: 10:50 nuvoloso Nuvoloso 28 16 48 1018 10 N/NE 13
Ieri h: 10:20 molto_nuvoloso Molto Nuvoloso 26 15 50 1018 10 NE 20.3
Ieri h: 09:50 molto_nuvoloso Molto Nuvoloso 27 16 50 1018 10 NE 13
Ieri h: 09:20 molto_nuvoloso Molto Nuvoloso 26 17 57 1018 10 E/NE 7.4
Ieri h: 08:50 poco_nuvoloso Poco Nuvoloso 25 18 65 1017 10 N 3.7
Ieri h: 08:20 sereno Sereno 25 19 69 1017 10 N 1.8
Ieri h: 07:50 sereno Sereno 23 20 83 1017 10 N 3.7